Location: ?????
(55.6500°N, 37.2500°E)
Time: 04:00:10
(UTC+00:00)

Cosmos 1151 Rocket - Pass Details

Date: 19 May 2025
Orbit: 586 x 607 km, 82.5° (Epoch: 19 June)

Event Time Altitude Azimuth Distance (km) Brightness Sun altitude
Exits shadow 22:19:32 14° 235° (SW) 1,694 4.9 -13.6°
Maximum altitude 22:22:39 31° 293° (WNW) 1,053 4.3 -13.5°
Drops below altitude 10° 22:26:27 10° 356° (N) 1,925 6.8 -13.3°
Sets 22:28:52 0° 7° (N) 2,832 8.4 -13.3°
